• In Österreich
  • Länderverzeichnis
  • Für 7 Tage
  • Wassertemperatur
  • Satellitenkarten
  • Wetterkarte
  • News
  • Widgets
  • user-avatar
    Anmelden

    Stündliche Wetter Snopovo

    Heute, 23 September, Sonntag

    Zeit Temperatur Niederschläge Wind Luftdruck Luftfeuchtigkeit
    00:00 +10°C° 0.1 mm 3 m/S 746 mmHg 93%
    01:00 +10°C° 0.1 mm 3 m/S 746 mmHg 93%
    02:00 +9°C° 0 mm 3 m/S 746 mmHg 94%
    03:00 +9°C° 0 mm 3 m/S 746 mmHg 94%
    04:00 +9°C° 0 mm 3 m/S 745 mmHg 94%
    05:00 +8°C° 0 mm 3 m/S 745 mmHg 95%
    06:00 +8°C° 0 mm 3 m/S 745 mmHg 93%
    07:00 +9°C° 0 mm 3 m/S 745 mmHg 91%
    08:00 +8°C° 0 mm 4 m/S 745 mmHg 89%
    09:00 +10°C° 0 mm 4 m/S 745 mmHg 84%
    10:00 +11°C° 0 mm 4 m/S 745 mmHg 80%
    11:00 +12°C° 0 mm 5 m/S 744 mmHg 75%
    12:00 +12°C° 0.2 mm 5 m/S 744 mmHg 72%
    13:00 +12°C° 0.2 mm 5 m/S 744 mmHg 70%
    14:00 +13°C° 0.2 mm 5 m/S 744 mmHg 68%
    15:00 +12°C° 0.2 mm 4 m/S 744 mmHg 71%
    16:00 +11°C° 0.2 mm 4 m/S 744 mmHg 75%
    17:00 +11°C° 0.2 mm 3 m/S 744 mmHg 78%
    18:00 +10°C° 0 mm 3 m/S 744 mmHg 81%
    19:00 +9°C° 0 mm 3 m/S 744 mmHg 84%
    20:00 +8°C° 0 mm 3 m/S 744 mmHg 86%
    21:00 +8°C° 0.1 mm 3 m/S 744 mmHg 88%
    22:00 +8°C° 0.1 mm 3 m/S 744 mmHg 89%
    23:00 +8°C° 0.1 mm 3 m/S 744 mmHg 91%

    Morgen, 24 September, Montag

    Zeit Temperatur Niederschläge Wind Luftdruck Luftfeuchtigkeit
    00:00 +7°C° 0 mm 3 m/S 744 mmHg 92%
    01:00 +7°C° 0 mm 3 m/S 744 mmHg 94%
    02:00 +7°C° 0 mm 3 m/S 744 mmHg 95%
    03:00 +7°C° 0 mm 2 m/S 744 mmHg 95%
    04:00 +6°C° 0 mm 2 m/S 744 mmHg 96%
    05:00 +6°C° 0 mm 2 m/S 743 mmHg 97%
    06:00 +7°C° 0 mm 2 m/S 743 mmHg 95%
    07:00 +7°C° 0 mm 2 m/S 743 mmHg 93%
    08:00 +8°C° 0 mm 2 m/S 743 mmHg 90%
    09:00 +9°C° 0 mm 2 m/S 743 mmHg 87%
    10:00 +11°C° 0 mm 1 m/S 742 mmHg 83%
    11:00 +12°C° 0 mm 1 m/S 742 mmHg 79%
    12:00 +12°C° 0.6 mm 1 m/S 742 mmHg 81%
    13:00 +12°C° 0.6 mm 1 m/S 742 mmHg 83%
    14:00 +11°C° 0.6 mm 1 m/S 741 mmHg 85%
    15:00 +10°C° 0.7 mm 2 m/S 741 mmHg 87%
    16:00 +9°C° 0.7 mm 2 m/S 740 mmHg 89%
    17:00 +9°C° 0.7 mm 2 m/S 740 mmHg 91%
    18:00 +9°C° 0.6 mm 3 m/S 740 mmHg 92%
    19:00 +7°C° 0.6 mm 4 m/S 740 mmHg 92%
    20:00 +7°C° 0.6 mm 4 m/S 740 mmHg 92%
    21:00 +7°C° 0.3 mm 5 m/S 740 mmHg 91%
    22:00 +7°C° 0.3 mm 5 m/S 740 mmHg 90%
    23:00 +5°C° 0.3 mm 6 m/S 740 mmHg 89%

    übermorgen, 25 September, Dienstag

    Zeit Temperatur Niederschläge Wind Luftdruck Luftfeuchtigkeit
    00:00 +5°C° 0.1 mm 6 m/S 740 mmHg 88%
    01:00 +5°C° 0.1 mm 6 m/S 740 mmHg 87%
    02:00 +5°C° 0.1 mm 5 m/S 740 mmHg 85%
    03:00 +4°C° 0 mm 6 m/S 741 mmHg 85%
    04:00 +4°C° 0 mm 6 m/S 741 mmHg 85%
    05:00 +4°C° 0 mm 6 m/S 742 mmHg 84%
    06:00 +4°C° 0 mm 6 m/S 742 mmHg 82%
    07:00 +4°C° 0 mm 6 m/S 743 mmHg 80%
    08:00 +4°C° 0 mm 6 m/S 743 mmHg 78%
    09:00 +5°C° 0 mm 6 m/S 744 mmHg 74%
    10:00 +5°C° 0 mm 6 m/S 745 mmHg 71%
    11:00 +7°C° 0 mm 6 m/S 745 mmHg 67%
    12:00 +8°C° 0 mm 6 m/S 746 mmHg 64%
    13:00 +8°C° 0 mm 6 m/S 746 mmHg 60%
    14:00 +8°C° 0 mm 6 m/S 747 mmHg 57%
    15:00 +8°C° 0.1 mm 6 m/S 747 mmHg 60%
    16:00 +7°C° 0.1 mm 6 m/S 748 mmHg 64%
    17:00 +5°C° 0.1 mm 6 m/S 749 mmHg 67%
    18:00 +6°C° 0 mm 5 m/S 750 mmHg 66%
    19:00 +5°C° 0 mm 5 m/S 750 mmHg 65%
    20:00 +4°C° 0 mm 4 m/S 751 mmHg 63%
    21:00 +3°C° 0 mm 4 m/S 752 mmHg 64%
    22:00 +3°C° 0 mm 4 m/S 752 mmHg 65%
    23:00 +3°C° 0 mm 4 m/S 753 mmHg 66%

    26 September, Mittwoch

    Zeit Temperatur Niederschläge Wind Luftdruck Luftfeuchtigkeit
    00:00 +1°C° 0 mm 4 m/S 753 mmHg 70%
    01:00 +2°C° 0 mm 3 m/S 754 mmHg 73%
    02:00 +2°C° 0 mm 3 m/S 754 mmHg 77%
    03:00 +2°C° 0 mm 3 m/S 755 mmHg 80%
    04:00 +2°C° 0 mm 3 m/S 755 mmHg 84%
    05:00 +3°C° 0 mm 3 m/S 755 mmHg 88%
    06:00 +3°C° 0 mm 3 m/S 756 mmHg 83%
    07:00 +4°C° 0 mm 3 m/S 756 mmHg 79%
    08:00 +5°C° 0 mm 4 m/S 756 mmHg 74%
    09:00 +6°C° 0 mm 4 m/S 756 mmHg 67%
    10:00 +8°C° 0 mm 4 m/S 755 mmHg 60%
    11:00 +10°C° 0 mm 4 m/S 755 mmHg 52%
    12:00 +10°C° 0 mm 5 m/S 755 mmHg 53%
    13:00 +10°C° 0 mm 5 m/S 754 mmHg 53%
    14:00 +12°C° 0 mm 5 m/S 753 mmHg 53%
    15:00 +10°C° 0.1 mm 5 m/S 753 mmHg 62%
    16:00 +9°C° 0.1 mm 5 m/S 752 mmHg 71%
    17:00 +8°C° 0.1 mm 5 m/S 751 mmHg 80%
    18:00 +8°C° 0.8 mm 5 m/S 750 mmHg 83%
    19:00 +7°C° 0.8 mm 6 m/S 750 mmHg 86%
    20:00 +6°C° 0.8 mm 7 m/S 749 mmHg 90%
    21:00 +6°C° 1.7 mm 7 m/S 748 mmHg 90%
    22:00 +6°C° 1.7 mm 7 m/S 746 mmHg 90%
    23:00 +6°C° 1.7 mm 7 m/S 745 mmHg 91%

    27 September, Donnerstag

    Zeit Temperatur Niederschläge Wind Luftdruck Luftfeuchtigkeit
    00:00 +6°C° 1.7 mm 7 m/S 744 mmHg 91%
    01:00 +6°C° 1.7 mm 7 m/S 743 mmHg 91%
    02:00 +8°C° 1.7 mm 6 m/S 742 mmHg 91%
    03:00 +8°C° 2 mm 7 m/S 741 mmHg 91%
    04:00 +8°C° 2 mm 7 m/S 739 mmHg 92%
    05:00 +8°C° 2 mm 7 m/S 738 mmHg 92%
    06:00 +9°C° 0.9 mm 7 m/S 737 mmHg 91%
    07:00 +10°C° 0.9 mm 7 m/S 737 mmHg 90%
    08:00 +11°C° 0.9 mm 7 m/S 736 mmHg 90%
    09:00 +11°C° 0.8 mm 6 m/S 737 mmHg 88%
    10:00 +11°C° 0.8 mm 6 m/S 737 mmHg 87%
    11:00 +11°C° 0.8 mm 6 m/S 737 mmHg 85%
    12:00 +11°C° 0.6 mm 6 m/S 737 mmHg 81%
    13:00 +11°C° 0.6 mm 7 m/S 737 mmHg 78%
    14:00 +11°C° 0.6 mm 8 m/S 738 mmHg 74%
    15:00 +10°C° 0.1 mm 8 m/S 739 mmHg 74%
    16:00 +9°C° 0.1 mm 8 m/S 740 mmHg 73%
    17:00 +6°C° 0.1 mm 8 m/S 740 mmHg 72%
    18:00 +6°C° 0 mm 7 m/S 741 mmHg 73%
    19:00 +5°C° 0 mm 6 m/S 743 mmHg 73%
    20:00 +6°C° 0 mm 5 m/S 744 mmHg 74%
    21:00 +5°C° 0 mm 5 m/S 744 mmHg 75%
    22:00 +5°C° 0 mm 5 m/S 745 mmHg 76%
    23:00 +5°C° 0 mm 5 m/S 746 mmHg 76%

    28 September, Freitag

    Zeit Temperatur Niederschläge Wind Luftdruck Luftfeuchtigkeit
    00:00 +5°C° 0 mm 4 m/S 746 mmHg 77%
    01:00 +4°C° 0 mm 4 m/S 746 mmHg 79%
    02:00 +4°C° 0 mm 3 m/S 746 mmHg 80%
    03:00 +4°C° 0 mm 3 m/S 747 mmHg 80%
    04:00 +4°C° 0 mm 3 m/S 747 mmHg 81%
    05:00 +4°C° 0 mm 3 m/S 747 mmHg 81%
    06:00 +5°C° 0 mm 2 m/S 747 mmHg 82%
    07:00 +6°C° 0 mm 2 m/S 747 mmHg 82%
    08:00 +6°C° 0 mm 2 m/S 747 mmHg 82%
    09:00 +7°C° 0.1 mm 2 m/S 747 mmHg 79%
    10:00 +8°C° 0.1 mm 2 m/S 748 mmHg 76%
    11:00 +9°C° 0.1 mm 2 m/S 748 mmHg 72%
    12:00 +9°C° 0.1 mm 2 m/S 748 mmHg 69%
    13:00 +10°C° 0.1 mm 2 m/S 748 mmHg 66%
    14:00 +10°C° 0.1 mm 3 m/S 749 mmHg 62%
    15:00 +10°C° 0 mm 2 m/S 749 mmHg 67%
    16:00 +9°C° 0 mm 2 m/S 749 mmHg 71%
    17:00 +9°C° 0 mm 1 m/S 750 mmHg 76%
    18:00 +7°C° 0 mm 2 m/S 750 mmHg 80%
    19:00 +6°C° 0 mm 2 m/S 751 mmHg 84%
    20:00 +5°C° 0 mm 2 m/S 751 mmHg 89%
    21:00 +5°C° 0 mm 2 m/S 752 mmHg 90%
    22:00 +5°C° 0 mm 2 m/S 752 mmHg 91%
    23:00 +4°C° 0 mm 2 m/S 752 mmHg 92%
    Mehr zeigen